INMARSAT 3-F5

Last updated on Sun Jun 21 2026 00:03:03 GMT+0000 (Coordinated Universal Time)

1 25153U 98006B 26171.09611556 -.00000300 00000+0 00000+0 0 9991 2 25153 9.7004 53.2332 0004223 31.4135 164.2527 1.00274648103928
UTC large
Height (km)
Speed (km/s)
/
Latitude / Longitude
Inclination (degrees)
Orbital Period (minutes)
Azimuth
Elevation
Range (km)
Doppler Factor

Next 0 passes for location: London (51.5072 / 0.1276)

No passes found over London.
INMARSAT 3-F5